Weather History for Denver, CO

Change the Weather History Date:

Sunday, November 11, 2012

  Actual Average Record
Temperature  
Mean Temperature 24 °F 40 °F  
Max Temperature 34 °F 54 °F 76 °F (1989)
Min Temperature 13 °F 26 °F -2 °F (1911)
Degree Days  
Heating Degree Days 41 25  
Month to date heating degree days 208 247  
Since 1 July heating degree days 765 828  
Cooling Degree Days 0 0  
Month to date cooling degree days 0 0  
Year to date cooling degree days 1236 769  
Moisture  
Dew Point 9 °F    
Average Humidity 59    
Maximum Humidity 88    
Minimum Humidity 29    
Precipitation  
Precipitation T in 0.02 in 1.02 in (1912)
Month to date precipitation 0.27 0.28  
Year to date precipitation 9.84 13.62  
Snow  
Snow 0.00 in - - ()
Month to date snowfall  
Since 1 July snowfall  
Since 1 September snowfall  
Snow Depth -    
Sea Level Pressure  
Sea Level Pressure 30.03 in    
Wind  
Wind Speed 9 mph (SSW)    
Max Wind Speed 22 mph    
Max Gust Speed 26 mph    
Visibility 10 miles    
Events Snow    
T = Trace of Precipitation, MM = Missing Value Source: NWS Daily Summary

Daily Weather History Graph

Daily Weather History Graph

Search for Another Location

Airport:

Trip Planner

Search our weather history database for the weather conditions in past years. The results will help you decide how hot, cold, wet, or windy it might be!

Date:

Astronomy

Nov. 11, 2012 Rise Set
Actual Time 6:39 AM MST 4:45 PM MST
Civil Twilight 6:10 AM MST 5:14 PM MST
Nautical Twilight 5:38 AM MST 5:46 PM MST
Astronomical Twilight 5:06 AM MST 6:18 PM MST
Moon 3:56 AM MST (11/11) 3:10 PM MST (11/11)
Length of Visible Light 11h 03m
Length of Day
10h 06m
Waning Crescent, 7% of the Moon is Illuminated
Nov 11
Waning Crescent
Nov 13
New
Nov 20
First Quarter
Nov 28
Full
Dec 6
Last Quarter

Hourly Weather History & Observations

Time (MST) Temp. Windchill Dew Point Humidity Pressure Visibility Wind Dir Wind Speed Gust Speed Precip Events Conditions
12:39 AM 19.4 °F 12.8 °F 15.8 °F 86% 29.83 in 10.0 mi NNE 4.6 mph - 0.00 in Snow Light Snow
12:53 AM 18.0 °F 9.8 °F 14.0 °F 84% 29.91 in 10.0 mi NNE 5.8 mph - 0.00 in Snow Light Snow
1:15 AM 17.6 °F 10.7 °F 14.0 °F 86% 29.84 in 10.0 mi NE 4.6 mph - 0.00 in Snow Light Snow
1:53 AM 15.1 °F 5.2 °F 10.9 °F 84% 29.94 in 10.0 mi East 6.9 mph - 0.00 in   Overcast
2:53 AM 15.1 °F 2.5 °F 9.0 °F 77% 29.93 in 10.0 mi East 10.4 mph - N/A   Overcast
3:12 AM 15.8 °F 2.7 °F 8.6 °F 73% 29.86 in 10.0 mi East 11.5 mph - N/A   Overcast
3:53 AM 15.1 °F 4.2 °F 8.1 °F 74% 29.95 in 10.0 mi East 8.1 mph - N/A   Overcast
4:53 AM 15.1 °F 5.2 °F 8.1 °F 74% 29.95 in 10.0 mi East 6.9 mph - N/A   Mostly Cloudy
5:21 AM 15.8 °F 7.2 °F 8.6 °F 73% 29.88 in 10.0 mi East 5.8 mph - N/A   Overcast
5:53 AM 15.1 °F 7.7 °F 9.0 °F 77% 29.99 in 10.0 mi East 4.6 mph - N/A   Mostly Cloudy
6:12 AM 14.0 °F 8.2 °F 8.6 °F 79% 29.89 in 10.0 mi East 3.5 mph - N/A   Overcast
6:31 AM 14.0 °F 6.5 °F 8.6 °F 79% 29.89 in 10.0 mi East 4.6 mph - N/A   Overcast
6:53 AM 15.8 °F 8.6 °F 10.4 °F 79% 29.90 in 10.0 mi East 4.6 mph - N/A   Mostly Cloudy
7:53 AM 14.0 °F 6.5 °F 10.0 °F 84% 30.06 in 10.0 mi ESE 4.6 mph - N/A   Mostly Cloudy
8:53 AM 19.4 °F 10.4 °F 10.4 °F 68% 29.94 in 10.0 mi SSE 6.9 mph - N/A   Mostly Cloudy
9:53 AM 23.0 °F 15.8 °F 15.1 °F 72% 30.06 in 10.0 mi SSW 5.8 mph - N/A   Mostly Cloudy
10:53 AM 26.1 °F 18.4 °F 16.0 °F 66% 30.05 in 10.0 mi SW 6.9 mph - N/A   Scattered Clouds
11:53 AM 30.9 °F 21.7 °F 14.0 °F 50% 30.02 in 10.0 mi WNW 11.5 mph - N/A   Mostly Cloudy
12:53 PM 33.1 °F 22.6 °F 10.9 °F 40% 30.02 in 10.0 mi West 16.1 mph - N/A   Scattered Clouds
1:53 PM 32.0 °F 20.8 °F 8.1 °F 37% 30.04 in 10.0 mi West 17.3 mph 23.0 mph N/A   Scattered Clouds
2:53 PM 32.0 °F 21.6 °F 3.0 °F 29% 30.06 in 10.0 mi WNW 15.0 mph 23.0 mph N/A   Scattered Clouds
3:53 PM 32.0 °F 22.1 °F 9.0 °F 38% 30.09 in 10.0 mi West 13.8 mph - N/A   Scattered Clouds
4:53 PM 28.9 °F 16.1 °F 6.1 °F 38% 30.12 in 10.0 mi West 19.6 mph - N/A   Scattered Clouds
5:53 PM 28.9 °F 15.1 °F 1.0 °F 30% 30.16 in 10.0 mi West 23.0 mph 28.8 mph N/A   Scattered Clouds
6:53 PM 27.0 °F 16.1 °F 1.9 °F 34% 30.20 in 10.0 mi West 12.7 mph - N/A   Scattered Clouds
7:53 PM 26.1 °F 16.8 °F 3.0 °F 37% 30.22 in 10.0 mi WSW 9.2 mph - N/A   Partly Cloudy
8:53 PM 26.1 °F 15.6 °F 5.0 °F 41% 30.21 in 10.0 mi WSW 11.5 mph - N/A   Partly Cloudy
9:53 PM 25.0 °F 14.8 °F 5.0 °F 43% 30.21 in 10.0 mi WSW 10.4 mph - N/A   Partly Cloudy
10:53 PM 25.0 °F 15.5 °F 3.9 °F 41% 30.21 in 10.0 mi WSW 9.2 mph - N/A   Clear
11:53 PM 27.0 °F 15.2 °F 3.0 °F 36% 30.19 in 10.0 mi West 15.0 mph - N/A   Clear